Regional Weather Roundup
Issued by NWS Sioux Falls, SD

Home | Current Version | Previous Version | Text Only | Print | Product List | Glossary On
Versions: 1 2 3 4 5 6 7 8 9 10 11 12 13 14 15 16 17 18 19 20 21 22 23 24 25 26 27 28 29 30 31 32 33 34 35 36 37 38 39 40 41 42 43 44 45 46 47 48 49 50
000
ASUS43 KFSD 111910
RWRFSD

WEATHER ROUNDUP FOR SE SOUTH DAKOTA/SW MINNESOTA/NW IOWA
NATIONAL WEATHER SERVICE SIOUX FALLS SD
200 PM CDT FRI JUL 11 2014

NOTE: "FAIR" INDICATES FEW OR NO CLOUDS BELOW 12,000 FEET WITH NO
SIGNIFICANT WEATHER AND OR OBSTRUCTIONS TO VISIBILITY.


SDZ038>040-050-052>070-112000-
SOUTHEAST SOUTH DAKOTA

CITY           SKY/WX    TMP DP  RH WIND       PRES   REMARKS
CHAMBERLAIN    MOSUNNY   89  67  48 NE8       29.94S
HURON          MOSUNNY   92  62  36 NE12      29.92R
MADISON        CLOUDY    79  73  83 SW7       29.97S
MITCHELL       PTSUNNY   87  73  62 VRB6      29.93S
SIOUX FALLS    CLOUDY    81  71  71 VRB3      29.96R
WINNER         FAIR      92  67  43 NE6       29.96S HX  95
YANKTON        PTSUNNY   82  72  69 S5        29.95R
$$

MNZ071-072-080-081-089-090-097-098-112000-
SOUTHWEST MINNESOTA

CITY           SKY/WX    TMP DP  RH WIND       PRES   REMARKS
FAIRMONT       CLOUDY    81  64  57 S13G20    29.98S
JACKSON        SUNNY     81  66  61 SW12G17   30.00R
LUVERNE        CLOUDY    79  70  73 S10       29.98S
MARSHALL       CLOUDY    77  68  73 SW17      29.94R
MONTEVIDEO     PTSUNNY   84  73  70 S6        29.93F
PIPESTONE      PTSUNNY   77  70  78 SW12      29.98S
REDWOOD FALLS  CLOUDY    78  70  76 SW14      29.94S
TRACY          CLOUDY    77  69  76 S14       29.97S
WINDOM         MOSUNNY   81  68  65 SW15      29.97F
WORTHINGTON    CLOUDY    75  70  83 SW12G20   30.00S
$$

IAZ001>003-012>014-020>022-031-032-NEZ013-014-SDZ071-112000-
NORTHWEST IOWA

CITY           SKY/WX    TMP DP  RH WIND       PRES   REMARKS
CHEROKEE       CLOUDY    73  69  86 SW10      30.00S
DENISON        CLOUDY    73  70  88 SW10      29.98S
ESTHERVILLE    SUNNY     81  67  62 S16       29.98F
LE MARS        PTSUNNY   75  70  83 S9        29.99F
ORANGE CITY    MOSUNNY   79  70  73 S10       29.99F
SHELDON        CLOUDY    75  70  83 SW10      29.99S
SIOUX CITY     PTSUNNY   76  69  79 E12       29.94F
SPENCER        PTSUNNY   79  69  71 S8        29.99F
STORM LAKE     CLOUDY    73  70  88 SW10      30.02S
$$

ABBREVIATIONS USED IN REMARKS
   TC - TEMPERATURE IN CELSIUS
  WCI - WIND CHILL INDEX
   HX - HEAT INDEX
  VSB - VISIBILITY




USA.gov is the U.S. government's official web portal to all federal, state and local government web resources and services.